| time (UTC) | temp F | wind direction | speed MPH | gust MPH | rain 1hr in | rain 24hr in | rain mn in | humidity % | barometer mb |
| 20260503183111 | 62 | 224 | 0.0 | 4.0 | 0.00 | 0.00 | 0.00 | 66 | 1011.5 |
| 20260503181510 | 61 | 74 | 0.0 | 1.0 | 0.00 | 0.00 | 0.00 | 70 | 1011.5 |
| 20260503180012 | 60 | 187 | 2.0 | 8.0 | 0.00 | 0.00 | 0.00 | 68 | 1011.5 |
| 20260503174509 | 59 | 223 | 5.0 | 9.0 | 0.00 | 0.00 | 0.00 | 70 | 1011.5 |
| 20260503173016 | 59 | 228 | 5.0 | 9.0 | 0.00 | 0.00 | 0.00 | 72 | 1011.5 |
| 20260503171506 | 61 | 294 | 7.0 | 16.0 | 0.00 | 0.00 | 0.00 | 69 | 1011.4 |
| 20260503081508 | 56 | 331 | 2.0 | 5.0 | 0.00 | 0.00 | 0.00 | 77 | 1010.1 |
| 20260503071558 | 56 | 20 | 2.0 | 5.0 | 0.00 | 0.00 | 0.00 | 77 | 1010.4 |
| 20260503054554 | 57 | 327 | 2.0 | 10.0 | 0.00 | 0.00 | 0.00 | 75 | 1010.7 |
| 20260503053054 | 57 | 331 | 3.0 | 8.0 | 0.00 | 0.00 | 0.00 | 75 | 1010.8 |
| 20260503051553 | 57 | 13 | 2.0 | 9.0 | 0.00 | 0.00 | 0.00 | 75 | 1010.9 |
| 20260503050051 | 57 | 24 | 3.0 | 9.0 | 0.00 | 0.00 | 0.00 | 75 | 1010.8 |
| 20260503044554 | 57 | 324 | 2.0 | 11.0 | 0.00 | 0.00 | 0.00 | 75 | 1010.6 |
| 20260503043051 | 57 | 327 | 2.0 | 9.0 | 0.00 | 0.00 | 0.00 | 75 | 1010.5 |
| 20260503041549 | 57 | 350 | 3.0 | 8.0 | 0.00 | 0.00 | 0.00 | 75 | 1010.6 |
| 20260503040048 | 57 | 9 | 5.0 | 11.0 | 0.00 | 0.00 | 0.00 | 75 | 1010.3 |
| 20260503034600 | 57 | 340 | 6.0 | 11.0 | 0.00 | 0.00 | 0.00 | 74 | 1010.1 |
| 20260503033053 | 58 | 315 | 4.0 | 11.0 | 0.00 | 0.00 | 0.00 | 74 | 1009.9 |
| 20260503031548 | 58 | 22 | 7.0 | 12.0 | 0.00 | 0.00 | 0.00 | 73 | 1009.7 |
| 20260503030044 | 58 | 330 | 6.0 | 13.0 | 0.00 | 0.00 | 0.00 | 73 | 1009.7 |
| 20260503024545 | 59 | 324 | 7.0 | 14.0 | 0.00 | 0.00 | 0.00 | 73 | 1009.5 |
| 20260503023039 | 59 | 343 | 8.0 | 13.0 | 0.00 | 0.00 | 0.00 | 73 | 1009.2 |
| 20260503021538 | 60 | 331 | 7.0 | 13.0 | 0.00 | 0.00 | 0.00 | 72 | 1009.1 |
| 20260503020037 | 60 | 325 | 8.0 | 12.0 | 0.00 | 0.00 | 0.00 | 71 | 1009.2 |
| 20260503014541 | 61 | 34 | 6.0 | 14.0 | 0.00 | 0.00 | 0.00 | 71 | 1009.2 |
| 20260503013035 | 61 | 24 | 4.0 | 14.0 | 0.00 | 0.00 | 0.00 | 72 | 1009.3 |
| 20260503011533 | 62 | 33 | 7.0 | 15.0 | 0.00 | 0.00 | 0.00 | 71 | 1009.3 |
| 20260503010036 | 63 | 59 | 5.0 | 13.0 | 0.00 | 0.00 | 0.00 | 71 | 1009.3 |
| 20260503004533 | 63 | 36 | 6.0 | 14.0 | 0.00 | 0.00 | 0.00 | 69 | 1009.2 |
| 20260503003047 | 64 | 49 | 8.0 | 14.0 | 0.00 | 0.00 | 0.00 | 69 | 1009.3 |
| 20260503001548 | 64 | 34 | 6.0 | 12.0 | 0.00 | 0.00 | 0.00 | 68 | 1009.3 |
| 20260503000032 | 65 | 23 | 9.0 | 17.0 | 0.00 | 0.00 | 0.00 | 64 | 1009.3 |
| 20260502234534 | 66 | 330 | 6.0 | 17.0 | 0.00 | 0.00 | 0.00 | 65 | 1009.4 |
| 20260502233028 | 66 | 9 | 10.0 | 17.0 | 0.00 | 0.00 | 0.00 | 65 | 1009.5 |
| 20260502231525 | 66 | 360 | 8.0 | 15.0 | 0.00 | 0.00 | 0.00 | 64 | 1009.7 |
| 20260502230032 | 68 | 344 | 8.0 | 15.0 | 0.00 | 0.00 | 0.00 | 62 | 1009.7 |
| 20260502224521 | 68 | 22 | 7.0 | 12.0 | 0.00 | 0.00 | 0.00 | 62 | 1010.0 |
| 20260502223020 | 69 | 308 | 8.0 | 13.0 | 0.00 | 0.00 | 0.00 | 61 | 1010.2 |
| 20260502221521 | 69 | 321 | 7.0 | 12.0 | 0.00 | 0.00 | 0.00 | 61 | 1010.6 |
| 20260502220017 | 70 | 360 | 6.0 | 11.0 | 0.00 | 0.00 | 0.00 | 64 | 1010.7 |
| 20260502214516 | 70 | 5 | 5.0 | 13.0 | 0.00 | 0.00 | 0.00 | 62 | 1010.9 |
| 20260502213021 | 70 | 315 | 6.0 | 12.0 | 0.00 | 0.00 | 0.00 | 63 | 1010.8 |
| 20260502211518 | 70 | 293 | 5.0 | 11.0 | 0.00 | 0.00 | 0.00 | 63 | 1011.0 |
| 20260502210013 | 68 | 349 | 6.0 | 11.0 | 0.00 | 0.00 | 0.00 | 65 | 1011.1 |
| 20260502204513 | 67 | 300 | 4.0 | 12.0 | 0.00 | 0.00 | 0.00 | 65 | 1011.3 |
| 20260502203011 | 68 | 328 | 5.0 | 11.0 | 0.00 | 0.00 | 0.00 | 66 | 1011.4 |
| 20260502201510 | 67 | 324 | 2.0 | 9.0 | 0.00 | 0.00 | 0.00 | 70 | 1011.6 |
| 20260502200011 | 67 | 309 | 4.0 | 8.0 | 0.00 | 0.00 | 0.00 | 67 | 1011.8 |
| 20260502194507 | 66 | 273 | 2.0 | 4.0 | 0.00 | 0.00 | 0.00 | 68 | 1011.9 |
| 20260502193006 | 66 | 69 | 0.0 | 5.0 | 0.00 | 0.00 | 0.00 | 67 | 1012.1 |
| 20260502191502 | 65 | 92 | 1.0 | 7.0 | 0.00 | 0.00 | 0.00 | 71 | 1012.2 |
| 20260502190100 | 64 | 81 | 4.0 | 8.0 | 0.00 | 0.00 | 0.00 | 72 | 1012.2 |
| 20260502184611 | 63 | 79 | 0.0 | 4.0 | 0.00 | 0.00 | 0.00 | 74 | 1012.3 |